Location: Asheville, NC
(35.6000°N, 82.5500°W)
Time: 23:33:21
(UTC-04:00)

Vanguard 3 - Pass Details

Date: 07 December 2017
Orbit: 508 x 3264 km, 33.3° (Epoch: 24 April)

Event Time Altitude Azimuth Distance (km) Brightness Sun altitude
Rises 16:46:36 0° 266° (W) 2,695 11.1 4.5°
Reaches altitude 10° 16:48:30 10° 264° (W) 1,910 10.4 4.2°
Maximum altitude 16:52:41 70° 181° (S) 791 7.4 3.4°
Drops below altitude 10° 16:59:19 10° 99° (E) 2,976 9.6 2.3°
Sets 17:02:57 0° 97° (E) 4,377 10.4 1.6°
